| time (UTC) | temp F | wind direction | speed MPH | gust MPH | rain 1hr in | rain 24hr in | rain mn in | humidity % | barometer mb |
| 20260506003505 | 61 | 191 | 1.0 | 1.0 | 0.00 | 0.00 | 0.00 | 70 | 1008.6 |
| 20260506003011 | 61 | 212 | 1.0 | 2.0 | 0.00 | 0.00 | 0.00 | 69 | 1008.6 |
| 20260506002509 | 61 | 228 | 0.0 | 3.0 | 0.00 | 0.00 | 0.00 | 69 | 1008.4 |
| 20260506002007 | 61 | 278 | 0.0 | 3.0 | 0.00 | 0.00 | 0.00 | 69 | 1008.0 |
| 20260506001516 | 61 | 131 | 1.0 | 2.0 | 0.00 | 0.00 | 0.00 | 71 | 1007.6 |
| 20260506001006 | 61 | 137 | 0.0 | 4.0 | 0.00 | 0.00 | 0.00 | 70 | 1007.4 |
| 20260506000508 | 61 | 138 | 1.0 | 4.0 | 0.00 | 0.00 | 0.00 | 70 | 1007.3 |
| 20260506000005 | 61 | 122 | 2.0 | 3.0 | 0.00 | 0.00 | 0.00 | 71 | 1006.9 |
| 20260505235504 | 61 | 120 | 1.0 | 2.0 | 0.00 | 0.00 | 0.00 | 70 | 1006.9 |
| 20260505235002 | 61 | 108 | 1.0 | 1.0 | 0.00 | 0.00 | 0.00 | 70 | 1007.1 |
| 20260505234506 | 61 | 112 | 0.0 | 2.0 | 0.00 | 0.00 | 0.00 | 71 | 1007.5 |
| 20260505234001 | 61 | 112 | 0.0 | 2.0 | 0.00 | 0.00 | 0.00 | 71 | 1007.5 |
| 20260505233505 | 62 | 109 | 1.0 | 2.0 | 0.00 | 0.00 | 0.00 | 71 | 1007.6 |
| 20260505233006 | 62 | 333 | 0.0 | 1.0 | 0.00 | 0.00 | 0.00 | 68 | 1007.6 |
| 20260505232503 | 62 | 333 | 0.0 | 2.0 | 0.00 | 0.00 | 0.00 | 68 | 1007.4 |
| 20260505232005 | 62 | 20 | 0.0 | 2.0 | 0.00 | 0.00 | 0.00 | 65 | 1007.4 |
| 20260505231514 | 62 | 245 | 0.0 | 4.0 | 0.00 | 0.00 | 0.00 | 64 | 1007.4 |
| 20260505231006 | 62 | 262 | 0.0 | 4.0 | 0.00 | 0.00 | 0.00 | 65 | 1007.6 |
| 20260505230507 | 62 | 248 | 2.0 | 6.0 | 0.00 | 0.00 | 0.00 | 65 | 1007.6 |
| 20260505230029 | 61 | 266 | 3.0 | 6.0 | 0.00 | 0.00 | 0.00 | 65 | 1007.7 |
| 20260505225508 | 61 | 156 | 1.0 | 3.0 | 0.00 | 0.00 | 0.00 | 65 | 1006.2 |
| 20260505225007 | 61 | 150 | 1.0 | 5.0 | 0.00 | 0.00 | 0.00 | 64 | 1005.9 |
| 20260505224504 | 62 | 153 | 2.0 | 5.0 | 0.00 | 0.00 | 0.00 | 64 | 1005.7 |
| 20260505224002 | 62 | 152 | 1.0 | 4.0 | 0.00 | 0.00 | 0.00 | 63 | 1005.7 |
| 20260505223504 | 62 | 126 | 2.0 | 6.0 | 0.00 | 0.00 | 0.00 | 62 | 1005.6 |
| 20260505223004 | 63 | 302 | 3.0 | 7.0 | 0.00 | 0.00 | 0.00 | 62 | 1005.6 |
| 20260505222504 | 63 | 206 | 3.0 | 7.0 | 0.00 | 0.00 | 0.00 | 62 | 1005.6 |
| 20260505222010 | 63 | 263 | 1.0 | 6.0 | 0.00 | 0.00 | 0.00 | 62 | 1005.6 |
| 20260505221508 | 63 | 239 | 2.0 | 7.0 | 0.00 | 0.00 | 0.00 | 62 | 1005.5 |
| 20260505221006 | 63 | 293 | 3.0 | 9.0 | 0.00 | 0.00 | 0.00 | 61 | 1005.3 |
| 20260505220507 | 63 | 204 | 4.0 | 9.0 | 0.00 | 0.00 | 0.00 | 61 | 1005.4 |
| 20260505220016 | 64 | 221 | 3.0 | 6.0 | 0.00 | 0.00 | 0.00 | 60 | 1005.2 |
| 20260505215507 | 64 | 218 | 3.0 | 6.0 | 0.00 | 0.00 | 0.00 | 60 | 1005.2 |
| 20260505215006 | 64 | 162 | 2.0 | 14.0 | 0.00 | 0.00 | 0.00 | 60 | 1005.4 |
| 20260505214520 | 64 | 205 | 3.0 | 14.0 | 0.00 | 0.00 | 0.00 | 61 | 1005.4 |
| 20260505214009 | 63 | 212 | 2.0 | 10.0 | 0.00 | 0.00 | 0.00 | 61 | 1005.3 |
| 20260505213503 | 64 | 232 | 3.0 | 9.0 | 0.00 | 0.00 | 0.00 | 61 | 1005.3 |
| 20260505213007 | 64 | 192 | 3.0 | 6.0 | 0.00 | 0.00 | 0.00 | 61 | 1005.2 |
| 20260505212506 | 64 | 228 | 3.0 | 7.0 | 0.00 | 0.00 | 0.00 | 61 | 1005.3 |
| 20260505212005 | 64 | 127 | 2.0 | 7.0 | 0.00 | 0.00 | 0.00 | 61 | 1005.1 |
| 20260505211513 | 64 | 188 | 2.0 | 6.0 | 0.00 | 0.00 | 0.00 | 60 | 1005.1 |
| 20260505211003 | 65 | 110 | 3.0 | 7.0 | 0.00 | 0.00 | 0.00 | 60 | 1005.0 |
| 20260505210506 | 65 | 209 | 3.0 | 7.0 | 0.00 | 0.00 | 0.00 | 59 | 1005.0 |
| 20260505210013 | 66 | 191 | 4.0 | 10.0 | 0.00 | 0.00 | 0.00 | 59 | 1005.1 |
| 20260505205513 | 66 | 85 | 5.0 | 10.0 | 0.00 | 0.00 | 0.00 | 58 | 1005.2 |
| 20260505205007 | 66 | 183 | 4.0 | 8.0 | 0.00 | 0.00 | 0.00 | 58 | 1004.9 |
| 20260505204515 | 66 | 224 | 3.0 | 9.0 | 0.00 | 0.00 | 0.00 | 58 | 1004.9 |
| 20260505204008 | 66 | 208 | 3.0 | 9.0 | 0.00 | 0.00 | 0.00 | 58 | 1005.0 |
| 20260505203508 | 66 | 225 | 3.0 | 11.0 | 0.00 | 0.00 | 0.00 | 58 | 1005.0 |
| 20260505203020 | 66 | 248 | 2.0 | 11.0 | 0.00 | 0.00 | 0.00 | 58 | 1005.1 |
| 20260505202508 | 67 | 222 | 3.0 | 6.0 | 0.00 | 0.00 | 0.00 | 57 | 1005.0 |
| 20260505202004 | 67 | 224 | 3.0 | 6.0 | 0.00 | 0.00 | 0.00 | 58 | 1005.1 |
| 20260505201506 | 67 | 150 | 3.0 | 8.0 | 0.00 | 0.00 | 0.00 | 57 | 1005.1 |
| 20260505201005 | 67 | 136 | 2.0 | 8.0 | 0.00 | 0.00 | 0.00 | 57 | 1005.2 |
| 20260505200505 | 67 | 238 | 2.0 | 8.0 | 0.00 | 0.00 | 0.00 | 57 | 1005.3 |
| 20260505200009 | 67 | 278 | 3.0 | 9.0 | 0.00 | 0.00 | 0.00 | 56 | 1005.3 |
| 20260505195503 | 68 | 105 | 3.0 | 9.0 | 0.00 | 0.00 | 0.00 | 57 | 1005.3 |
| 20260505195007 | 68 | 195 | 2.0 | 8.0 | 0.00 | 0.00 | 0.00 | 56 | 1005.4 |
| 20260505194514 | 68 | 226 | 3.0 | 8.0 | 0.00 | 0.00 | 0.00 | 55 | 1005.4 |
| 20260505194012 | 68 | 122 | 2.0 | 7.0 | 0.00 | 0.00 | 0.00 | 55 | 1005.5 |
| 20260505193512 | 68 | 153 | 1.0 | 8.0 | 0.00 | 0.00 | 0.00 | 56 | 1005.5 |
| 20260505193022 | 68 | 171 | 3.0 | 8.0 | 0.00 | 0.00 | 0.00 | 56 | 1005.5 |
| 20260505192509 | 68 | 176 | 3.0 | 6.0 | 0.00 | 0.00 | 0.00 | 54 | 1005.7 |
| 20260505192009 | 68 | 95 | 3.0 | 6.0 | 0.00 | 0.00 | 0.00 | 55 | 1005.8 |
| 20260505191531 | 68 | 167 | 1.0 | 7.0 | 0.00 | 0.00 | 0.00 | 55 | 1006.0 |
| 20260505191004 | 68 | 146 | 3.0 | 7.0 | 0.00 | 0.00 | 0.00 | 55 | 1006.2 |
| 20260505190503 | 68 | 164 | 2.0 | 6.0 | 0.00 | 0.00 | 0.00 | 55 | 1006.2 |
| 20260505190011 | 68 | 240 | 3.0 | 6.0 | 0.00 | 0.00 | 0.00 | 55 | 1006.2 |
| 20260505185504 | 68 | 184 | 2.0 | 9.0 | 0.00 | 0.00 | 0.00 | 57 | 1006.2 |
| 20260505185006 | 67 | 200 | 3.0 | 9.0 | 0.00 | 0.00 | 0.00 | 56 | 1006.3 |
| 20260505184512 | 67 | 220 | 3.0 | 7.0 | 0.00 | 0.00 | 0.00 | 56 | 1006.5 |
| 20260505184008 | 67 | 191 | 3.0 | 6.0 | 0.00 | 0.00 | 0.00 | 57 | 1006.4 |
| 20260505183506 | 67 | 255 | 2.0 | 6.0 | 0.00 | 0.00 | 0.00 | 57 | 1006.6 |
| 20260505183021 | 67 | 231 | 3.0 | 6.0 | 0.00 | 0.00 | 0.00 | 57 | 1006.7 |
| 20260505182509 | 67 | 113 | 2.0 | 6.0 | 0.00 | 0.00 | 0.00 | 57 | 1006.7 |
| 20260505182013 | 67 | 243 | 2.0 | 6.0 | 0.00 | 0.00 | 0.00 | 57 | 1006.8 |
| 20260505181522 | 67 | 115 | 1.0 | 6.0 | 0.00 | 0.00 | 0.00 | 58 | 1006.8 |
| 20260505181010 | 66 | 198 | 2.0 | 7.0 | 0.00 | 0.00 | 0.00 | 58 | 1006.8 |
| 20260505180510 | 67 | 228 | 2.0 | 7.0 | 0.00 | 0.00 | 0.00 | 58 | 1006.8 |
| 20260505180026 | 67 | 102 | 1.0 | 8.0 | 0.00 | 0.00 | 0.00 | 57 | 1006.7 |
| 20260505175505 | 67 | 149 | 3.0 | 8.0 | 0.00 | 0.00 | 0.00 | 57 | 1006.8 |
| 20260505175004 | 67 | 194 | 1.0 | 6.0 | 0.00 | 0.00 | 0.00 | 57 | 1006.8 |
| 20260505174510 | 67 | 106 | 1.0 | 6.0 | 0.00 | 0.00 | 0.00 | 57 | 1006.9 |
| 20260505174010 | 67 | 210 | 1.0 | 5.0 | 0.00 | 0.00 | 0.00 | 57 | 1006.9 |
| 20260505173507 | 68 | 225 | 2.0 | 5.0 | 0.00 | 0.00 | 0.00 | 55 | 1007.1 |
| 20260505173017 | 68 | 208 | 2.0 | 7.0 | 0.00 | 0.00 | 0.00 | 55 | 1007.1 |
| 20260505172510 | 68 | 157 | 2.0 | 7.0 | 0.00 | 0.00 | 0.00 | 55 | 1007.2 |
| 20260505172011 | 69 | 177 | 3.0 | 5.0 | 0.00 | 0.00 | 0.00 | 54 | 1007.3 |
| 20260505171531 | 69 | 180 | 2.0 | 5.0 | 0.00 | 0.00 | 0.00 | 54 | 1007.4 |
| 20260505171011 | 68 | 206 | 3.0 | 5.0 | 0.00 | 0.00 | 0.00 | 55 | 1007.3 |
| 20260505170509 | 68 | 114 | 2.0 | 6.0 | 0.00 | 0.00 | 0.00 | 55 | 1007.4 |
| 20260505170024 | 68 | 128 | 2.0 | 7.0 | 0.00 | 0.00 | 0.00 | 55 | 1007.5 |
| 20260505165510 | 69 | 116 | 3.0 | 7.0 | 0.00 | 0.00 | 0.00 | 54 | 1007.6 |
| 20260505165016 | 69 | 195 | 2.0 | 4.0 | 0.00 | 0.00 | 0.00 | 55 | 1007.6 |
| 20260505164527 | 69 | 226 | 2.0 | 5.0 | 0.00 | 0.00 | 0.00 | 54 | 1007.7 |
| 20260505164004 | 69 | 138 | 1.0 | 5.0 | 0.00 | 0.00 | 0.00 | 55 | 1007.7 |
| 20260505163506 | 69 | 223 | 2.0 | 5.0 | 0.00 | 0.00 | 0.00 | 55 | 1007.8 |
| 20260505163014 | 69 | 167 | 2.0 | 5.0 | 0.00 | 0.00 | 0.00 | 55 | 1007.9 |
| 20260505162507 | 68 | 191 | 2.0 | 4.0 | 0.00 | 0.00 | 0.00 | 54 | 1008.0 |
| 20260505162008 | 68 | 115 | 2.0 | 6.0 | 0.00 | 0.00 | 0.00 | 55 | 1008.0 |
| 20260505161520 | 67 | 172 | 2.0 | 6.0 | 0.00 | 0.00 | 0.00 | 56 | 1008.1 |
| 20260505161008 | 67 | 135 | 1.0 | 5.0 | 0.00 | 0.00 | 0.00 | 57 | 1008.1 |
| 20260505160506 | 67 | 128 | 2.0 | 5.0 | 0.00 | 0.00 | 0.00 | 56 | 1008.2 |
| 20260505153030 | 62 | 103 | 2.0 | 5.0 | 0.00 | 0.00 | 0.00 | 65 | 1008.8 |
| 20260505152504 | 61 | 103 | 2.0 | 5.0 | 0.00 | 0.00 | 0.00 | 66 | 1008.8 |
| 20260505152008 | 60 | 75 | 3.0 | 5.0 | 0.00 | 0.00 | 0.00 | 67 | 1008.9 |
| 20260505151506 | 60 | 168 | 2.0 | 4.0 | 0.00 | 0.00 | 0.00 | 68 | 1009.1 |
| 20260505151003 | 59 | 232 | 2.0 | 4.0 | 0.00 | 0.00 | 0.00 | 71 | 1009.1 |
| 20260505150503 | 58 | 221 | 1.0 | 4.0 | 0.00 | 0.00 | 0.00 | 70 | 1009.3 |
| 20260505140509 | 61 | 129 | 1.0 | 5.0 | 0.00 | 0.00 | 0.00 | 66 | 1008.5 |
| 20260505125003 | 57 | 75 | 2.0 | 3.0 | 0.00 | 0.00 | 0.00 | 68 | 1008.7 |
| 20260505124507 | 57 | 269 | 2.0 | 3.0 | 0.00 | 0.00 | 0.00 | 68 | 1008.8 |
| 20260505124006 | 57 | 126 | 1.0 | 4.0 | 0.00 | 0.00 | 0.00 | 70 | 1008.6 |
| 20260505123506 | 56 | 124 | 2.0 | 4.0 | 0.00 | 0.00 | 0.00 | 69 | 1008.6 |
| 20260505123004 | 56 | 164 | 1.0 | 2.0 | 0.00 | 0.00 | 0.00 | 70 | 1008.8 |
| 20260505122503 | 56 | 266 | 1.0 | 2.0 | 0.00 | 0.00 | 0.00 | 70 | 1008.8 |
| 20260505122008 | 56 | 188 | 1.0 | 2.0 | 0.00 | 0.00 | 0.00 | 70 | 1008.8 |
| 20260505121508 | 56 | 122 | 1.0 | 3.0 | 0.00 | 0.00 | 0.00 | 71 | 1008.8 |
| 20260505121006 | 55 | 181 | 1.0 | 3.0 | 0.00 | 0.00 | 0.00 | 70 | 1009.0 |
| 20260505120508 | 55 | 227 | 1.0 | 3.0 | 0.00 | 0.00 | 0.00 | 71 | 1009.0 |
| 20260505120011 | 55 | 246 | 1.0 | 3.0 | 0.00 | 0.00 | 0.00 | 71 | 1009.0 |
| 20260505115507 | 55 | 125 | 1.0 | 3.0 | 0.00 | 0.00 | 0.00 | 72 | 1009.0 |
| 20260505115007 | 54 | 105 | 1.0 | 3.0 | 0.00 | 0.00 | 0.00 | 73 | 1009.1 |
| 20260505114520 | 54 | 136 | 1.0 | 3.0 | 0.00 | 0.00 | 0.00 | 74 | 1009.1 |
| 20260505114009 | 53 | 143 | 1.0 | 3.0 | 0.00 | 0.00 | 0.00 | 75 | 1009.2 |
| 20260505113504 | 52 | 150 | 0.0 | 2.0 | 0.00 | 0.00 | 0.00 | 77 | 1009.4 |
| 20260505113004 | 51 | 91 | 0.0 | 2.0 | 0.00 | 0.00 | 0.00 | 79 | 1009.1 |
| 20260505112505 | 50 | 156 | 0.0 | 1.0 | 0.00 | 0.00 | 0.00 | 80 | 1009.3 |
| 20260505112003 | 50 | 156 | 0.0 | 1.0 | 0.00 | 0.00 | 0.00 | 80 | 1009.3 |
| 20260505111506 | 50 | 158 | 1.0 | 1.0 | 0.00 | 0.00 | 0.00 | 80 | 1009.3 |
| 20260505111004 | 50 | 135 | 0.0 | 1.0 | 0.00 | 0.00 | 0.00 | 81 | 1009.3 |
| 20260505110504 | 49 | 245 | 0.0 | 1.0 | 0.00 | 0.00 | 0.00 | 82 | 1009.3 |
| 20260505102005 | 47 | 101 | 0.0 | 1.0 | 0.00 | 0.00 | 0.00 | 83 | 1009.3 |
| 20260505101505 | 47 | 99 | 0.0 | 1.0 | 0.00 | 0.00 | 0.00 | 83 | 1009.2 |
| 20260505101004 | 47 | 99 | 0.0 | 1.0 | 0.00 | 0.00 | 0.00 | 83 | 1009.1 |
| 20260505100504 | 47 | 123 | 0.0 | 1.0 | 0.00 | 0.00 | 0.00 | 83 | 1009.1 |
| 20260505100008 | 47 | 122 | 0.0 | 1.0 | 0.00 | 0.00 | 0.00 | 83 | 1009.2 |
| 20260505095507 | 47 | 113 | 0.0 | 1.0 | 0.00 | 0.00 | 0.00 | 83 | 1009.1 |
| 20260505095014 | 47 | 113 | 1.0 | 1.0 | 0.00 | 0.00 | 0.00 | 83 | 1009.0 |
| 20260505094514 | 47 | 114 | 0.0 | 1.0 | 0.00 | 0.00 | 0.00 | 83 | 1009.2 |
| 20260505094008 | 47 | 115 | 0.0 | 1.0 | 0.00 | 0.00 | 0.00 | 83 | 1009.1 |
| 20260505093507 | 46 | 114 | 0.0 | 2.0 | 0.00 | 0.00 | 0.00 | 83 | 1009.1 |
| 20260505093018 | 46 | 108 | 0.0 | 2.0 | 0.00 | 0.00 | 0.00 | 83 | 1009.1 |
| 20260505092509 | 46 | 104 | 0.0 | 2.0 | 0.00 | 0.00 | 0.00 | 83 | 1009.2 |
| 20260505092008 | 46 | 119 | 0.0 | 2.0 | 0.00 | 0.00 | 0.00 | 83 | 1009.2 |
| 20260505091524 | 46 | 122 | 0.0 | 2.0 | 0.00 | 0.00 | 0.00 | 82 | 1009.2 |
| 20260505091004 | 47 | 124 | 0.0 | 2.0 | 0.00 | 0.00 | 0.00 | 82 | 1009.2 |
| 20260505090504 | 47 | 120 | 1.0 | 2.0 | 0.00 | 0.00 | 0.00 | 82 | 1009.2 |
| 20260505090009 | 47 | 124 | 0.0 | 2.0 | 0.00 | 0.00 | 0.00 | 81 | 1009.3 |
| 20260505085504 | 47 | 125 | 0.0 | 2.0 | 0.00 | 0.00 | 0.00 | 82 | 1009.2 |
| 20260505085004 | 47 | 114 | 1.0 | 2.0 | 0.00 | 0.00 | 0.00 | 81 | 1009.4 |
| 20260505084512 | 47 | 114 | 1.0 | 2.0 | 0.00 | 0.00 | 0.00 | 81 | 1009.3 |
| 20260505084004 | 47 | 134 | 1.0 | 2.0 | 0.00 | 0.00 | 0.00 | 80 | 1009.3 |
| 20260505083509 | 47 | 124 | 0.0 | 1.0 | 0.00 | 0.00 | 0.00 | 80 | 1009.3 |
| 20260505083016 | 48 | 126 | 0.0 | 1.0 | 0.00 | 0.00 | 0.00 | 80 | 1009.4 |
| 20260505082510 | 48 | 122 | 1.0 | 1.0 | 0.00 | 0.00 | 0.00 | 80 | 1009.4 |
| 20260505082010 | 48 | 121 | 0.0 | 1.0 | 0.00 | 0.00 | 0.00 | 80 | 1009.4 |
| 20260505081523 | 48 | 120 | 0.0 | 1.0 | 0.00 | 0.00 | 0.00 | 80 | 1009.2 |
| 20260505081007 | 48 | 120 | 0.0 | 1.0 | 0.00 | 0.00 | 0.00 | 79 | 1009.4 |
| 20260505080512 | 48 | 120 | 1.0 | 2.0 | 0.00 | 0.00 | 0.00 | 79 | 1009.4 |
| 20260505080025 | 48 | 120 | 1.0 | 2.0 | 0.00 | 0.00 | 0.00 | 78 | 1009.3 |
| 20260505075503 | 48 | 120 | 1.0 | 1.0 | 0.00 | 0.00 | 0.00 | 78 | 1009.4 |
| 20260505075006 | 49 | 122 | 1.0 | 1.0 | 0.00 | 0.00 | 0.00 | 77 | 1009.4 |
| 20260505074508 | 49 | 123 | 1.0 | 1.0 | 0.00 | 0.00 | 0.00 | 75 | 1009.4 |
| 20260505074004 | 50 | 124 | 1.0 | 1.0 | 0.00 | 0.00 | 0.00 | 74 | 1009.3 |
| 20260505073507 | 50 | 127 | 1.0 | 1.0 | 0.00 | 0.00 | 0.00 | 73 | 1009.3 |
| 20260505073016 | 51 | 136 | 0.0 | 1.0 | 0.00 | 0.00 | 0.00 | 71 | 1009.3 |
| 20260505072509 | 51 | 166 | 0.0 | 1.0 | 0.00 | 0.00 | 0.00 | 71 | 1009.2 |
| 20260505072009 | 51 | 166 | 0.0 | 1.0 | 0.00 | 0.00 | 0.00 | 70 | 1009.2 |
| 20260505071516 | 51 | 166 | 0.0 | 0.0 | 0.00 | 0.00 | 0.00 | 70 | 1009.1 |
| 20260505071010 | 52 | 166 | 0.0 | 0.0 | 0.00 | 0.00 | 0.00 | 69 | 1008.9 |
| 20260505070503 | 52 | 166 | 0.0 | 0.0 | 0.00 | 0.00 | 0.00 | 68 | 1009.0 |
| 20260505070004 | 53 | 166 | 0.0 | 0.0 | 0.00 | 0.00 | 0.00 | 68 | 1009.2 |
| 20260505065504 | 53 | 166 | 0.0 | 0.0 | 0.00 | 0.00 | 0.00 | 67 | 1009.2 |
| 20260505065003 | 53 | 166 | 0.0 | 1.0 | 0.00 | 0.00 | 0.00 | 64 | 1009.2 |
| 20260505064508 | 54 | 220 | 0.0 | 1.0 | 0.00 | 0.00 | 0.00 | 65 | 1009.2 |
| 20260505064008 | 54 | 220 | 0.0 | 1.0 | 0.00 | 0.00 | 0.00 | 63 | 1009.1 |
| 20260505063504 | 54 | 220 | 0.0 | 1.0 | 0.00 | 0.00 | 0.00 | 63 | 1009.2 |
| 20260505063012 | 55 | 220 | 0.0 | 1.0 | 0.00 | 0.00 | 0.00 | 62 | 1009.2 |
| 20260505062503 | 55 | 221 | 0.0 | 1.0 | 0.00 | 0.00 | 0.00 | 62 | 1009.1 |
| 20260505062003 | 55 | 220 | 0.0 | 1.0 | 0.00 | 0.00 | 0.00 | 61 | 1009.1 |
| 20260505061505 | 55 | 219 | 0.0 | 1.0 | 0.00 | 0.00 | 0.00 | 62 | 1009.2 |
| 20260505061002 | 55 | 219 | 0.0 | 1.0 | 0.00 | 0.00 | 0.00 | 61 | 1009.2 |
| 20260505060504 | 55 | 267 | 0.0 | 1.0 | 0.00 | 0.00 | 0.00 | 62 | 1009.2 |
| 20260505060005 | 55 | 297 | 0.0 | 1.0 | 0.00 | 0.00 | 0.00 | 62 | 1009.1 |
| 20260505055504 | 55 | 297 | 0.0 | 1.0 | 0.00 | 0.00 | 0.00 | 62 | 1009.2 |
| 20260505055004 | 55 | 297 | 0.0 | 1.0 | 0.00 | 0.00 | 0.00 | 62 | 1009.2 |
| 20260505054516 | 55 | 297 | 0.0 | 1.0 | 0.00 | 0.00 | 0.00 | 62 | 1009.1 |
| 20260505054004 | 55 | 297 | 0.0 | 1.0 | 0.00 | 0.00 | 0.00 | 61 | 1009.2 |
| 20260505053509 | 55 | 297 | 0.0 | 1.0 | 0.00 | 0.00 | 0.00 | 61 | 1009.2 |
| 20260505053008 | 56 | 296 | 0.0 | 1.0 | 0.00 | 0.00 | 0.00 | 60 | 1009.1 |
| 20260505052508 | 56 | 297 | 0.0 | 2.0 | 0.00 | 0.00 | 0.00 | 59 | 1008.9 |
| 20260505052006 | 56 | 300 | 1.0 | 2.0 | 0.00 | 0.00 | 0.00 | 60 | 1008.8 |
| 20260505051503 | 56 | 219 | 1.0 | 1.0 | 0.00 | 0.00 | 0.00 | 59 | 1008.8 |
| 20260505051003 | 56 | 134 | 0.0 | 1.0 | 0.00 | 0.00 | 0.00 | 59 | 1008.8 |
| 20260505050502 | 56 | 239 | 0.0 | 2.0 | 0.00 | 0.00 | 0.00 | 59 | 1008.8 |
| 20260505041512 | 55 | 220 | 1.0 | 2.0 | 0.00 | 0.00 | 0.00 | 62 | 1008.5 |
| 20260505041008 | 55 | 219 | 1.0 | 2.0 | 0.00 | 0.00 | 0.00 | 64 | 1008.3 |
| 20260505040508 | 54 | 231 | 0.0 | 2.0 | 0.00 | 0.00 | 0.00 | 64 | 1008.3 |
| 20260505040005 | 54 | 226 | 1.0 | 2.0 | 0.00 | 0.00 | 0.00 | 66 | 1008.4 |
| 20260505035502 | 54 | 203 | 0.0 | 2.0 | 0.00 | 0.00 | 0.00 | 66 | 1008.4 |
| 20260505035003 | 53 | 233 | 1.0 | 3.0 | 0.00 | 0.00 | 0.00 | 67 | 1008.4 |
| 20260505034504 | 53 | 229 | 1.0 | 3.0 | 0.00 | 0.00 | 0.00 | 69 | 1008.5 |
| 20260505034004 | 52 | 184 | 0.0 | 1.0 | 0.00 | 0.00 | 0.00 | 71 | 1008.4 |
| 20260505033504 | 52 | 221 | 0.0 | 1.0 | 0.00 | 0.00 | 0.00 | 71 | 1008.5 |
| 20260505033010 | 52 | 194 | 0.0 | 1.0 | 0.00 | 0.00 | 0.00 | 72 | 1008.5 |
| 20260505032505 | 51 | 194 | 0.0 | 1.0 | 0.00 | 0.00 | 0.00 | 73 | 1008.5 |
| 20260505032004 | 51 | 245 | 0.0 | 1.0 | 0.00 | 0.00 | 0.00 | 74 | 1008.5 |
| 20260505031510 | 51 | 218 | 0.0 | 1.0 | 0.00 | 0.00 | 0.00 | 75 | 1008.5 |
| 20260505031006 | 50 | 193 | 0.0 | 1.0 | 0.00 | 0.00 | 0.00 | 77 | 1008.4 |
| 20260505030506 | 50 | 205 | 0.0 | 2.0 | 0.00 | 0.00 | 0.00 | 77 | 1008.4 |
| 20260505030033 | 50 | 224 | 0.0 | 2.0 | 0.00 | 0.00 | 0.00 | 78 | 1008.3 |
| 20260505025513 | 49 | 141 | 0.0 | 1.0 | 0.00 | 0.00 | 0.00 | 78 | 1008.3 |
| 20260505025004 | 49 | 138 | 0.0 | 1.0 | 0.00 | 0.00 | 0.00 | 78 | 1008.3 |
| 20260505024504 | 49 | 138 | 0.0 | 1.0 | 0.00 | 0.00 | 0.00 | 78 | 1008.3 |
| 20260505024002 | 49 | 137 | 0.0 | 1.0 | 0.00 | 0.00 | 0.00 | 78 | 1008.3 |
| 20260505023504 | 49 | 181 | 0.0 | 1.0 | 0.00 | 0.00 | 0.00 | 78 | 1008.3 |
| 20260505023006 | 49 | 111 | 0.0 | 1.0 | 0.00 | 0.00 | 0.00 | 79 | 1008.3 |
| 20260505022505 | 49 | 111 | 0.0 | 1.0 | 0.00 | 0.00 | 0.00 | 79 | 1008.2 |
| 20260505022007 | 49 | 112 | 0.0 | 1.0 | 0.00 | 0.00 | 0.00 | 79 | 1008.2 |
| 20260505021508 | 48 | 112 | 0.0 | 1.0 | 0.00 | 0.00 | 0.00 | 79 | 1008.2 |
| 20260505021005 | 48 | 112 | 0.0 | 0.0 | 0.00 | 0.00 | 0.00 | 79 | 1008.1 |
| 20260505020503 | 49 | 112 | 0.0 | 1.0 | 0.00 | 0.00 | 0.00 | 79 | 1008.0 |
| 20260505020014 | 49 | 112 | 0.0 | 1.0 | 0.00 | 0.00 | 0.00 | 79 | 1008.0 |
| 20260505015507 | 49 | 112 | 0.0 | 1.0 | 0.00 | 0.00 | 0.00 | 79 | 1008.0 |
| 20260505015007 | 49 | 112 | 0.0 | 1.0 | 0.00 | 0.00 | 0.00 | 79 | 1007.9 |
| 20260505014520 | 49 | 112 | 0.0 | 1.0 | 0.00 | 0.00 | 0.00 | 78 | 1008.0 |
| 20260505014008 | 49 | 112 | 0.0 | 1.0 | 0.00 | 0.00 | 0.00 | 78 | 1007.9 |
| 20260505013503 | 49 | 112 | 0.0 | 1.0 | 0.00 | 0.00 | 0.00 | 78 | 1007.9 |
| 20260505013012 | 49 | 112 | 0.0 | 1.0 | 0.00 | 0.00 | 0.00 | 77 | 1007.9 |
| 20260505012507 | 49 | 112 | 0.0 | 1.0 | 0.00 | 0.00 | 0.00 | 77 | 1007.9 |
| 20260505012004 | 49 | 112 | 0.0 | 1.0 | 0.00 | 0.00 | 0.00 | 76 | 1007.8 |
| 20260505011507 | 50 | 112 | 0.0 | 1.0 | 0.00 | 0.00 | 0.00 | 76 | 1007.7 |
| 20260505011005 | 50 | 112 | 0.0 | 1.0 | 0.00 | 0.00 | 0.00 | 75 | 1007.6 |
| 20260505010503 | 50 | 113 | 0.0 | 1.0 | 0.00 | 0.00 | 0.00 | 75 | 1007.6 |
| 20260505010010 | 50 | 112 | 0.0 | 1.0 | 0.00 | 0.00 | 0.00 | 74 | 1007.7 |
| 20260505005507 | 50 | 112 | 0.0 | 1.0 | 0.00 | 0.00 | 0.00 | 74 | 1007.5 |
| 20260505005007 | 50 | 112 | 0.0 | 1.0 | 0.00 | 0.00 | 0.00 | 73 | 1007.4 |
| 20260505004528 | 51 | 113 | 0.0 | 2.0 | 0.00 | 0.00 | 0.00 | 73 | 1007.3 |
| 20260505004007 | 51 | 113 | 0.0 | 2.0 | 0.00 | 0.00 | 0.00 | 72 | 1007.3 |